NOAA 16 DEB, 41086

Orbit data source: Space-Track

NOAA 16 DEB, 41086 is space debris in SSO originally from a launch on Thu, 21 Sep 2000 UTC launched from the Air Force Western Test Range (AFWTR). Debris objects in space refer to the collection of defunct objects orbiting the Earth. Examples of debris include non-operational satellites, rocket bodies, and fragments generated from explosions, collisions, or faulty payload assembly.

Loading next visibility...
Identifier
41086, 2000-055AV
Orbit
SSO
Country
Flag of USUS
Related business
Manufacturer
Unknown
Mission
Spacecraft
Bus & Motor
Unknown
Mass
Unknown
Launch date (UTC)
2000-09-21 (25 years ago)
Launch vehicle
Unknown
Launch site
Air Force Western Test Range (AFWTR)
Object type
Payload
Rocket body
Debris
Shape & HBR
Unknown shape, 0.1 m
Radar Cross Section
Small (<0.1 m²)

Expand to show TLE details & history
Last TLE update: 1 day ago

TLE from 1 day ago
0 NOAA 16 DEB
1 41086U 00055AV  25310.22513075  .00023542  00000-0  46915-2 0  9998
2 41086  98.8088 104.4142 0029928 300.4307  59.3936 14.61704894519065
Epoch: 2025-11-06T05:24Z
TLE epoch observation values (Epoch: 2025-11-06T05:24:11.296Z)
Latitude
-0.00003°
Longitude
-22.31937°
Altitude
679.921 km
Speed
7.522 km/s
True Right ascension
06h 57m 39s
True Declination
0° 00' 00"
Sunlit
Object was in full shadow at epoch
Visualization orbit readout
Latitude
Unknown
Longitude
Unknown
Altitude
Unknown
Speed
Unknown
Apparent Right ascension
Unknown
Apparent Declination
Unknown
Sunlit
N/A
Visualization observer readout
Local Sidereal Time
03:30:41
Azimuth
Unknown
Elevation
Unknown
Doppler factor
Unknown
Orbital elements
Apogee altitude
705.92 km
Perigee altitude
663.644 km
Semi-major axis
7,062.919 km
Eccentricity
0.00299
Inclination
98.8088°
RAAN
104.4142°
Arg. of periapsis
300.4307°
True anomaly
59.68933°
Mean anomaly
59.3936°
Eccentric anomaly
59.54141°
Mean motion
3.65651 °/min
Orbital period
98.45 mins
BSTAR
0.0046915
Loading maneuver chart data...
Computing Atmospheric mass density...
Loading historical data...
Loading historical data...
Loading historical data...
Loading historical data...
Loading historical data...
Loading historical data...
Loading historical data...

Documentation

Showing up to 5 results
|